Home > Weather > Witten > Past weeks

Flag for Germany Past Weather in Witten, North Rhine-Westphalia, Germany — Yesterday and Last 2 Weeks

Now
57 °F

Sunny.


Feels Like: 57 °F
Forecast: 49 / 76 °F
Wind: 3 mph from North

Location: Dortmund / Wickede

Current Time: Aug 30, 2016 at 9:29:09 AM

Latest Report: Aug 30, 2016 at 8:50 AM


Visibility: 10 mi

Pressure: 30.30 "Hg

Humidity: 77%

Dew Point: 50 °F

Location of WittenLocation

Past Weather in Witten — Graph

°F

Witten Temperature Yesterday

Maximum temperature yesterday: 68 °F (at 2:20 PM)
Minimum temperature yesterday: 59 °F (at 9:20 PM)
Average temperature yesterday: 64 °F

High & Low Weather Summary for the Past Weeks

 TemperatureHumidityPressure
High91 °F (Aug 25, 3:50 PM)94% (Aug 30, 6:50 AM)30.36 "Hg (Aug 30, 6:50 AM)
Low48 °F (Aug 16, 6:20 AM)16% (Aug 25, 3:50 PM)29.80 "Hg (Aug 18, 2:50 PM)
Average70 °F55%30.05 "Hg
* Reported Aug 15 7:20 AM — Aug 30 7:50 AM, Witten, Weather by CustomWeather, © 2016

Note: Actual official high and low records may vary slightly from our data, if they occured in-between our weather recording intervals... More about our weather records

Advertising

Witten Weather History for the Previous 24 Hours

Scroll right to see more
 ConditionsComfort  
Time TempWeatherWind HumidityBarometerVisibility
7:50 AM
Tue, Aug 30
52 °FSunny.3 mph94%30.30 "Hg10 mi
7:20 AM50 °FFog.No wind94%30.27 "HgN/A
6:50 AM50 °FFog.No wind94%30.27 "HgN/A
6:20 AM52 °FClear.3 mph82%30.27 "Hg10 mi
5:50 AM54 °FClear.7 mph88%30.27 "Hg10 mi
5:20 AM54 °FClear.1 mph88%30.27 "Hg10 mi
9:50 PM
Mon, Aug 29
59 °FPassing clouds.5 mph77%30.21 "HgN/A
9:20 PM59 °FSunny.3 mph72%30.18 "Hg10 mi
8:50 PM63 °FPassing clouds.5 mph64%30.18 "HgN/A
8:20 PM64 °FPassing clouds.10 mph60%30.18 "HgN/A
7:50 PM66 °FScattered clouds.9 mph60%30.15 "HgN/A
7:20 PM68 °FScattered clouds.9 mph53%30.15 "HgN/A
6:50 PM68 °FScattered clouds.10 mph53%30.15 "HgN/A
6:20 PM68 °FScattered clouds.9 mph53%30.15 "HgN/A
5:50 PM68 °FScattered clouds.9 mph56%30.15 "HgN/A
5:20 PM68 °FScattered clouds.9 mph56%30.12 "HgN/A
4:50 PM68 °FScattered clouds.9 mph56%30.12 "HgN/A
4:20 PM68 °FScattered clouds.8 mph56%30.12 "HgN/A
3:50 PM68 °FScattered clouds.8 mph56%30.12 "HgN/A
3:20 PM66 °FBroken clouds.8 mph68%30.12 "HgN/A
2:50 PM66 °FScattered clouds.6 mph64%30.12 "HgN/A
2:20 PM68 °FBroken clouds.6 mph64%30.12 "HgN/A
1:50 PM66 °FBroken clouds.6 mph68%30.12 "HgN/A
1:20 PM64 °FBroken clouds.6 mph78%30.09 "HgN/A
12:50 PM64 °FBroken clouds.7 mph78%30.09 "HgN/A
12:20 PM64 °FPartly sunny.8 mph78%30.09 "HgN/A
11:50 AM63 °FPartly sunny.8 mph83%30.09 "HgN/A
11:20 AM63 °FDrizzle. Broken clouds.8 mph83%30.09 "HgN/A
10:50 AM61 °FDrizzle. Broken clouds.9 mph88%30.09 "Hg4 mi
10:20 AM61 °FScattered showers. Partly sunny.7 mph88%30.07 "Hg4 mi
9:50 AM61 °FLight rain. Partly sunny.9 mph83%30.07 "Hg3 mi
9:20 AM61 °FScattered showers. Partly sunny.9 mph83%30.07 "HgN/A
Weather by CustomWeather, © 2016

See weather overviewHow to use our weather pages